ONEWEB-0327 (49196 NORAD) Tracking and Keplerian Element Data

This shows tracking and keplerian element data for the satellite.

Feedback or suggestion? Click here.




ElementValue
Catalog49196
NameONEWEB-0327
Epoch Orbit776
Epoch Day300.83334491
Epoch Year2021
RAAN314.0725
Inclination87.5774
Eccentricity0.002288
Argument of Perigee147.214
Mean Anonmoly272.3868
Mean Motion14.5178748
Decay Rate-0.01382591
L11 49196U 21083L 21300.83334491 -.01382591 00000-0 -37118+0 0 9994
L22 49196 87.5774 314.0725 0022880 147.2140 272.3868 14.51787480 7761

Live tracking and technical data element details for ONEWEB-0327 (NORAD 49196). ONEWEB-0327 can be tracked NOW for your location showing map with azimuth and elevation plus other details from your city location.

Track the satellite on the map from your city or location and see movement details for azimuth, elevation, latitude, longitude, range, height, and movement on the map or in text.







IsCatalogInMostPopularTable: catalog: 49196, numindb: 10
Update: records affected: 1



GetName: 49196 ONEWEB-0327

Hit Count: updated at: Thu, 28 Oct 2021 12:01:12 GMT